PDT,Max TemperatureF,Mean TemperatureF,Min TemperatureF,Max Dew PointF,MeanDew PointF,Min DewpointF,Max Humidity, Mean Humidity, Min Humidity, Max Sea Level PressureIn, Mean Sea Level PressureIn, Min Sea Level PressureIn, Max VisibilityMiles, Mean VisibilityMiles, Min VisibilityMiles, Max Wind SpeedMPH, Mean Wind SpeedMPH, Max Gust SpeedMPH,PrecipitationIn, CloudCover, Events, WindDirDegrees
2012-9-1,87,68,49,44,39,33,68,40,15,30.08,30.01,29.94,10,10,9,13,5,18,0.00,0,,356
2012-9-2,91,68,45,38,34,24,60,31,9,30.14,30.05,29.96,10,10,10,18,5,30,0.00,0,,12
2012-9-3,92,69,45,38,33,29,53,29,11,30.09,30.03,29.94,10,10,10,18,4,22,0.00,0,,13
2012-9-4,92,70,47,40,35,31,56,33,11,30.13,30.05,29.97,10,10,10,16,3,25,0.00,0,,40
2012-9-5,92,70,47,39,31,22,50,28,9,30.07,29.99,29.90,10,10,10,13,2,16,0.00,0,,185
2012-9-6,90,71,51,37,33,25,46,27,13,30.02,29.97,29.91,10,10,10,18,7,26,0.00,0,,101
2012-9-7,93,70,47,40,35,28,61,31,10,30.15,30.07,30.01,10,10,10,22,6,29,0.00,0,Rain,117
2012-9-8,93,73,53,48,39,22,54,31,19,30.09,30.00,29.89,10,10,10,21,7,25,0.00,1,,78
2012-9-9,87,68,48,40,29,19,46,27,9,30.03,29.97,29.89,10,10,10,21,8,25,0.00,0,,1
2012-9-10,83,63,42,42,39,33,71,44,20,30.13,30.05,29.96,10,10,10,18,7,22,0.00,0,,10
2012-9-11,86,64,41,42,36,18,71,40,8,30.12,30.04,29.97,10,10,10,15,5,20,0.00,0,,1
2012-9-12,93,68,42,37,27,23,46,25,9,30.20,30.12,30.06,10,10,10,8,3,7,0.00,0,,28
2012-9-13,93,68,43,35,27,18,46,24,7,30.24,30.14,30.06,10,10,10,8,1,11,0.00,0,,265
2012-9-14,92,71,49,42,37,30,50,31,16,30.15,30.08,30.00,10,10,10,28,9,33,0.00,0,,152
2012-9-15,89,69,49,45,39,33,63,35,14,30.13,30.08,30.01,10,10,10,9,4,14,0.00,0,,34
2012-9-16,89,68,47,41,33,24,59,31,11,30.15,30.08,29.99,10,10,10,12,2,12,0.00,0,,81
2012-9-17,90,67,43,34,30,25,65,27,10,30.16,30.06,29.98,10,10,10,15,3,17,0.00,0,,360
2012-9-18,91,69,47,36,32,26,48,27,13,30.13,30.06,29.99,10,10,10,15,4,16,0.00,0,,60
2012-9-19,93,70,47,39,32,27,50,29,12,30.17,30.08,29.99,10,10,10,18,4,22,0.00,0,,91
2012-9-20,93,69,45,40,33,25,56,29,11,30.13,30.04,29.95,10,10,10,16,6,20,0.00,0,,72
2012-9-21,89,67,45,41,35,27,61,35,11,30.10,30.02,29.92,10,10,10,23,5,28,0.00,0,,12
2012-9-22,86,64,41,36,32,29,62,35,14,30.12,30.05,29.97,10,10,10,21,5,24,0.00,0,,1
2012-9-23,82,68,53,40,34,28,55,30,18,30.09,30.04,29.96,10,10,10,24,8,28,0.00,0,,10
2012-9-24,81,61,41,41,38,33,76,45,19,30.17,30.08,30.01,10,10,10,15,5,17,0.00,0,,4
2012-9-25,86,65,43,43,39,33,65,44,16,30.10,30.02,29.93,10,10,10,15,4,20,0.00,0,,352
2012-9-26,86,65,44,42,38,33,71,40,16,30.06,29.99,29.90,10,10,9,13,2,14,0.00,0,,24
2012-9-27,89,67,45,39,35,30,58,36,14,30.07,29.98,29.89,10,10,10,12,2,18,0.00,0,,83
2012-9-28,88,68,48,38,32,28,50,31,14,30.05,29.99,29.93,10,10,10,15,4,20,0.00,0,,343
2012-9-29,87,64,41,38,32,24,62,35,10,30.19,30.13,30.06,10,10,10,10,4,11,0.00,0,,22
2012-9-30,88,65,41,38,33,27,58,36,15,30.30,30.21,30.13,10,10,10,6,2,9,0.00,0,,41